Beverly, MA

6:23 AM EDT on April 24, 2017 (GMT -0400)
Beverly Municipal

Weather History for KBVY - October, 2012

Change the Weather History Date:

Tuesday, October 16, 2012

  Actual Average Record
Temperature  
Mean Temperature 52 °F -  
Max Temperature 64 °F 58 °F 71 °F (2016)
Min Temperature 36 °F 38 °F 34 °F (2006)
Degree Days  
Heating Degree Days 14    
Growing Degree Days 2 (Base 50)    
Moisture  
Dew Point 42 °F    
Average Humidity 69    
Maximum Humidity 90    
Minimum Humidity 42    
Precipitation  
Precipitation 0.04 in - - ()
Sea Level Pressure  
Sea Level Pressure 29.65 in    
Wind  
Wind Speed 7 mph (WNW)    
Max Wind Speed 18 mph    
Max Gust Speed 32 mph    
Visibility 10 miles    
Events Rain    
Averages and records for this station are not official NWS values.
T = Trace of Precipitation, MM = Missing Value Source: NWS Daily Summary

Daily Weather History Graph

Daily Weather History Graph

Search for Another Location

Airport or City:

Trip Planner

Search our weather history database for the weather conditions in past years. The results will help you decide how hot, cold, wet, or windy it might be!

Date:

Astronomy

Oct. 16, 2012 Rise Set
Actual Time 6:58 AM EDT 5:59 PM EDT
Civil Twilight 6:29 AM EDT 6:27 PM EDT
Nautical Twilight 5:57 AM EDT 7:00 PM EDT
Astronomical Twilight 5:24 AM EDT 7:32 PM EDT
Moon 8:20 AM EDT (10/16) 6:38 PM EDT (10/16)
Length of Visible Light 11h 57m
Length of Day
11h 00m
New Moon, 2% of the Moon is Illuminated
Oct 16
New Moon
Oct 21
First Quarter
Oct 29
Full
Nov 6
Last Quarter
Nov 13
New

Hourly Weather History & Observations

Time (EDT) Temp. Windchill Dew Point Humidity Pressure Visibility Wind Dir Wind Speed Gust Speed Precip Events Conditions
12:53 AM 64.0 °F - 60.1 °F 87% 29.57 in 10.0 mi Calm Calm - N/A   Mostly Cloudy
1:03 AM 64.4 °F - 60.8 °F 88% 29.58 in 10.0 mi West 12.7 mph 19.6 mph 0.00 in Rain Light Rain
1:53 AM 60.1 °F - 57.0 °F 90% 29.57 in 10.0 mi West 3.5 mph - 0.01 in Rain Light Rain
2:53 AM 60.1 °F - 57.0 °F 90% 29.55 in 10.0 mi WNW 3.5 mph - 0.02 in   Overcast
3:53 AM 60.1 °F - 57.0 °F 90% 29.54 in 10.0 mi West 3.5 mph - 0.00 in   Overcast
4:53 AM 59.0 °F - 55.0 °F 87% 29.54 in 10.0 mi WNW 6.9 mph - 0.00 in Rain Light Rain
5:53 AM 55.9 °F - 52.0 °F 87% 29.55 in 10.0 mi WNW 10.4 mph - 0.01 in   Overcast
6:53 AM 54.0 °F - 46.0 °F 75% 29.55 in 10.0 mi WNW 11.5 mph - N/A   Overcast
7:53 AM 53.6 °F - 44.6 °F 72% 29.58 in 10.0 mi West 10.4 mph 19.6 mph N/A   Overcast
8:53 AM 53.1 °F - 41.0 °F 64% 29.59 in 10.0 mi WNW 11.5 mph 18.4 mph N/A   Clear
9:53 AM 54.0 °F - 37.9 °F 55% 29.61 in 10.0 mi West 18.4 mph 27.6 mph N/A   Clear
10:53 AM 55.9 °F - 37.9 °F 51% 29.60 in 10.0 mi WNW 15.0 mph 21.9 mph N/A   Mostly Cloudy
11:53 AM 55.0 °F - 36.0 °F 49% 29.62 in 10.0 mi NW 15.0 mph 28.8 mph N/A   Mostly Cloudy
12:53 PM 54.0 °F - 34.0 °F 47% 29.60 in 10.0 mi NW 17.3 mph 29.9 mph N/A   Mostly Cloudy
1:53 PM 55.0 °F - 34.0 °F 45% 29.62 in 10.0 mi WNW 17.3 mph 32.2 mph N/A   Mostly Cloudy
2:53 PM 55.0 °F - 33.1 °F 43% 29.63 in 10.0 mi WNW 15.0 mph 24.2 mph N/A   Partly Cloudy
3:53 PM 55.9 °F - 33.1 °F 42% 29.66 in 10.0 mi WNW 11.5 mph 23.0 mph N/A   Clear
4:53 PM 54.0 °F - 33.1 °F 45% 29.68 in 10.0 mi NW 12.7 mph 25.3 mph N/A   Clear
5:53 PM 52.0 °F - 33.1 °F 49% 29.72 in 10.0 mi NW 12.7 mph - N/A   Clear
6:53 PM 48.9 °F - 34.0 °F 56% 29.76 in 10.0 mi Calm Calm - N/A   Clear
7:53 PM 45.0 °F - 36.0 °F 71% 29.79 in 10.0 mi Calm Calm - N/A   Clear
8:53 PM 39.9 °F - 35.1 °F 83% 29.81 in 10.0 mi Calm Calm - N/A   Clear
9:53 PM 39.0 °F 35.7 °F 34.0 °F 82% 29.82 in 10.0 mi NNW 4.6 mph - N/A   Clear
10:53 PM 39.9 °F - 35.1 °F 83% 29.84 in 10.0 mi Calm Calm - N/A   Clear
11:53 PM 36.0 °F - 32.0 °F 86% 29.87 in 10.0 mi Calm Calm - N/A   Clear